This demonstration page uses our WeatherBlox Daily Observations layout. Learn more.

Left ArrowRight Arrow

Hourly Observations for August 2, 2020

Temp ( °F °C ) Dew Point ( °F °C ) Humidity (%) Winds ( mph kmh ) Pressure ( in mb ) Visibility ( mi km ) Precip ( " mm )
12:53 am 00:53 Mostly Clear 66 18.9 61 16.1 84 84 N 7 11 30.06 1018 10 16 0.00 0.00
1:53 am 01:53 Clear 63 17.2 59 15 87 87 NNW 7 11 30.06 1018 10 16 0.00 0.00
2:53 am 02:53 Clear 62 16.7 57 13.9 84 84 NNW 7 11 30.06 1018 10 16 0.00 0.00
3:53 am 03:53 Clear 61 16.1 56 13.3 84 84 NNW 7 11 30.06 1018 10 16 0.00 0.00
4:53 am 04:53 Clear 60 15.6 55 12.8 84 84 NNW 8 13 30.06 1018 10 16 0.00 0.00
5:53 am 05:53 Clear 58 14.4 54 12.2 87 87 NW 6 9 30.08 1019 10 16 0.00 0.00
6:53 am 06:53 Sunny 58 14.4 54 12.2 87 87 NNW 7 11 30.10 1019 10 16 0.00 0.00
7:53 am 07:53 Sunny 61 16.1 55 12.8 81 81 NNW 9 15 30.10 1019 10 16 0.00 0.00
8:53 am 08:53 Sunny 64 17.8 56 13.3 75 75 NNW 8 13 30.12 1020 10 16 0.00 0.00
9:53 am 09:53 Sunny 69 20.6 56 13.3 63 63 N 10 17 30.13 1020 10 16 0.00 0.00
10:53 am 10:53 Sunny 72 22.2 56 13.3 57 57 N 17 28 30.13 1020 10 16 0.00 0.00
11:53 am 11:53 Mostly Sunny 73 22.8 55 12.8 53 53 NNW 16 26 30.13 1020 10 16 0.00 0.00
12:53 pm 12:53 Mostly Cloudy 75 23.9 56 13.3 52 52 N 14 22 30.11 1020 10 16 0.00 0.00
1:53 pm 13:53 Partly Cloudy 76 24.4 56 13.3 50 50 N 15 24 30.11 1020 10 16 0.00 0.00
2:53 pm 14:53 Mostly Cloudy 76 24.4 57 13.9 52 52 NNE 9 15 30.10 1019 10 16 0.00 0.00
3:53 pm 15:53 Mostly Cloudy 78 25.6 57 13.9 48 48 N 10 17 30.09 1019 10 16 0.00 0.00
4:53 pm 16:53 Mostly Sunny 78 25.6 57 13.9 48 48 N 9 15 30.09 1019 10 16 0.00 0.00
5:53 pm 17:53 Mostly Sunny 78 25.6 56 13.3 47 47 NNE 12 19 30.08 1019 10 16 0.00 0.00
6:53 pm 18:53 Mostly Sunny 75 23.9 58 14.4 55 55 NE 9 15 30.08 1019 10 16 0.00 0.00
7:53 pm 19:53 Sunny 72 22.2 59 15 64 64 NE 6 9 30.09 1019 10 16 0.00 0.00
8:53 pm 20:53 Clear 68 20 58 14.4 70 70 NNE 3 6 30.10 1019 10 16 0.00 0.00
9:53 pm 21:53 Clear 64 17.8 56 13.3 75 75 NE 3 6 30.11 1020 10 16 0.00 0.00
10:53 pm 22:53 Clear 63 17.2 57 13.9 81 81 Calm 30.12 1020 10 16 0.00 0.00
11:53 pm 23:53 Clear 62 16.7 55 12.8 78 78 undefined N/A 30.14 1021 10 16 0.00 0.00

Powered by AerisWeather